| time (UTC) | temp F | wind direction | speed MPH | gust MPH | rain 1hr in | rain 24hr in | rain mn in | humidity % | barometer mb |
| 20260903211600 | 76 | 265 | 14.0 | 25.0 | 0.00 | 0.02 | 0.00 | 27 | 1008.5 |
| 20260903210114 | 76 | 219 | 17.0 | 29.0 | 0.00 | 0.02 | 0.00 | 27 | 1008.6 |
| 20260903204548 | 76 | 215 | 19.0 | 32.0 | 0.00 | 0.02 | 0.00 | 27 | 1008.5 |
| 20260903203049 | 75 | 253 | 17.0 | 24.0 | 0.00 | 0.02 | 0.00 | 28 | 1008.6 |
| 20260903201553 | 74 | 246 | 16.0 | 26.0 | 0.00 | 0.02 | 0.00 | 29 | 1008.8 |
| 20260903200051 | 75 | 233 | 18.0 | 24.0 | 0.00 | 0.02 | 0.00 | 28 | 1008.5 |
| 20260903194559 | 73 | 243 | 15.0 | 24.0 | 0.00 | 0.02 | 0.00 | 31 | 1008.8 |
| 20260903193046 | 73 | 236 | 17.0 | 25.0 | 0.00 | 0.02 | 0.00 | 30 | 1008.8 |
| 20260903191551 | 74 | 246 | 21.0 | 29.0 | 0.00 | 0.02 | 0.00 | 29 | 1008.8 |
| 20260903190052 | 74 | 241 | 18.0 | 27.0 | 0.00 | 0.02 | 0.00 | 29 | 1008.7 |
| 20260903184553 | 74 | 252 | 18.0 | 28.0 | 0.00 | 0.02 | 0.00 | 30 | 1008.6 |
| 20260903183056 | 73 | 254 | 16.0 | 26.0 | 0.00 | 0.02 | 0.00 | 31 | 1008.8 |
| 20260903181555 | 73 | 230 | 17.0 | 25.0 | 0.00 | 0.02 | 0.00 | 31 | 1008.9 |
| 20260903174547 | 70 | 217 | 10.0 | 13.0 | 0.00 | 0.02 | 0.00 | 39 | 1009.2 |
| 20260903173056 | 66 | 252 | 3.0 | 7.0 | 0.00 | 0.02 | 0.00 | 48 | 1009.4 |
| 20260903171558 | 64 | 188 | 2.0 | 8.0 | 0.00 | 0.02 | 0.00 | 50 | 1009.5 |
| 20260903170107 | 63 | 214 | 6.0 | 11.0 | 0.00 | 0.02 | 0.00 | 53 | 1009.6 |
| 20260903164554 | 61 | 256 | 3.0 | 7.0 | 0.00 | 0.02 | 0.00 | 58 | 1009.5 |
| 20260903163052 | 58 | 219 | 2.0 | 6.0 | 0.00 | 0.02 | 0.00 | 62 | 1009.3 |
| 20260903161548 | 56 | 196 | 4.0 | 6.0 | 0.00 | 0.02 | 0.00 | 66 | 1009.3 |
| 20260903160106 | 55 | 180 | 5.0 | 7.0 | 0.00 | 0.02 | 0.00 | 67 | 1009.3 |
| 20260903154557 | 56 | 157 | 3.0 | 8.0 | 0.00 | 0.02 | 0.00 | 67 | 1009.4 |
| 20260903153058 | 56 | 246 | 4.0 | 9.0 | 0.00 | 0.02 | 0.00 | 65 | 1009.2 |
| 20260903151552 | 56 | 236 | 10.0 | 14.0 | 0.00 | 0.02 | 0.00 | 67 | 1009.2 |
| 20260903150103 | 53 | 253 | 2.0 | 5.0 | 0.00 | 0.02 | 0.00 | 71 | 1009.4 |
| 20260903144552 | 51 | 150 | 0.0 | 0.0 | 0.00 | 0.02 | 0.00 | 75 | 1009.1 |
| 20260903143108 | 50 | 150 | 0.0 | 3.0 | 0.00 | 0.02 | 0.00 | 76 | 1009.2 |
| 20260903141608 | 48 | 150 | 0.0 | 0.0 | 0.00 | 0.02 | 0.00 | 80 | 1009.2 |
| 20260903140053 | 47 | 150 | 0.0 | 0.0 | 0.00 | 0.02 | 0.00 | 80 | 1008.9 |
| 20260903134549 | 46 | 150 | 0.0 | 1.0 | 0.00 | 0.02 | 0.00 | 81 | 1008.9 |
| 20260903133418 | 45 | 150 | 0.0 | 0.0 | 0.00 | 0.02 | 0.00 | 81 | 1008.8 |
| 20260903133201 | 45 | 150 | 0.0 | 0.0 | 0.00 | 0.02 | 0.00 | 81 | 1008.8 |
| 20260903131602 | 44 | 150 | 0.0 | 0.0 | 0.00 | 0.02 | 0.00 | 81 | 1008.5 |
| 20260903130056 | 45 | 150 | 0.0 | 6.0 | 0.00 | 0.02 | 0.00 | 79 | 1008.3 |
| 20260903124542 | 45 | 150 | 0.0 | 0.0 | 0.00 | 0.02 | 0.00 | 78 | 1008.3 |
| 20260903123047 | 46 | 150 | 0.0 | 1.0 | 0.00 | 0.02 | 0.00 | 78 | 1008.0 |
| 20260903121557 | 45 | 150 | 0.0 | 0.0 | 0.00 | 0.02 | 0.00 | 78 | 1007.9 |
| 20260903120044 | 46 | 150 | 0.0 | 7.0 | 0.00 | 0.02 | 0.00 | 78 | 1008.2 |
| 20260903114540 | 46 | 150 | 0.0 | 3.0 | 0.00 | 0.02 | 0.00 | 77 | 1008.0 |
| 20260903113048 | 46 | 144 | 0.0 | 0.0 | 0.00 | 0.02 | 0.00 | 78 | 1008.1 |
| 20260903111547 | 43 | 144 | 0.0 | 3.0 | 0.00 | 0.02 | 0.00 | 80 | 1008.0 |
| 20260903110047 | 46 | 144 | 0.0 | 0.0 | 0.00 | 0.02 | 0.00 | 77 | 1008.0 |
| 20260903104554 | 46 | 144 | 0.0 | 7.0 | 0.00 | 0.02 | 0.00 | 77 | 1008.1 |
| 20260903103050 | 44 | 5 | 3.0 | 4.0 | 0.00 | 0.02 | 0.00 | 79 | 1008.0 |
| 20260903101551 | 45 | 190 | 0.0 | 0.0 | 0.00 | 0.02 | 0.00 | 78 | 1008.0 |
| 20260903100047 | 47 | 190 | 0.0 | 0.0 | 0.00 | 0.02 | 0.00 | 72 | 1007.8 |
| 20260903094549 | 48 | 190 | 0.0 | 0.0 | 0.00 | 0.02 | 0.00 | 72 | 1008.0 |
| 20260903093057 | 46 | 190 | 0.0 | 1.0 | 0.00 | 0.02 | 0.00 | 77 | 1007.8 |
| 20260903091553 | 48 | 190 | 0.0 | 4.0 | 0.00 | 0.02 | 0.00 | 74 | 1007.8 |
| 20260903090053 | 49 | 190 | 0.0 | 0.0 | 0.00 | 0.02 | 0.00 | 71 | 1007.7 |
| 20260903084548 | 49 | 190 | 0.0 | 0.0 | 0.00 | 0.02 | 0.00 | 72 | 1007.7 |
| 20260903083056 | 49 | 190 | 0.0 | 0.0 | 0.00 | 0.02 | 0.00 | 73 | 1007.5 |
| 20260903081544 | 46 | 190 | 0.0 | 2.0 | 0.00 | 0.02 | 0.00 | 78 | 1007.6 |
| 20260903080045 | 48 | 190 | 0.0 | 0.0 | 0.00 | 0.02 | 0.00 | 75 | 1007.6 |
| 20260903074546 | 48 | 190 | 0.0 | 2.0 | 0.00 | 0.02 | 0.00 | 75 | 1007.7 |
| 20260903073051 | 50 | 190 | 1.0 | 3.0 | 0.00 | 0.02 | 0.00 | 72 | 1007.7 |
| 20260903071551 | 49 | 190 | 0.0 | 8.0 | 0.00 | 0.02 | 0.00 | 74 | 1007.8 |
| 20260903070046 | 47 | 288 | 3.0 | 5.0 | 0.00 | 0.02 | 0.00 | 78 | 1007.9 |
| 20260903064545 | 48 | 142 | 3.0 | 5.0 | 0.00 | 0.02 | 0.00 | 76 | 1007.6 |
| 20260903063034 | 49 | 142 | 0.0 | 4.0 | 0.00 | 0.02 | 0.00 | 75 | 1007.4 |
| 20260903061537 | 48 | 142 | 3.0 | 5.0 | 0.00 | 0.02 | 0.00 | 77 | 1007.2 |
| 20260903060044 | 49 | 170 | 6.0 | 7.0 | 0.00 | 0.02 | 0.00 | 76 | 1007.2 |
| 20260903054540 | 51 | 179 | 5.0 | 6.0 | 0.00 | 0.02 | 0.02 | 73 | 1008.0 |
| 20260903053038 | 51 | 211 | 5.0 | 9.0 | 0.00 | 0.02 | 0.02 | 72 | 1008.1 |
| 20260903051540 | 50 | 205 | 4.0 | 6.0 | 0.00 | 0.02 | 0.02 | 76 | 1008.5 |
| 20260903050044 | 52 | 205 | 3.0 | 5.0 | 0.00 | 0.02 | 0.02 | 74 | 1008.3 |
| 20260903044540 | 53 | 205 | 4.0 | 9.0 | 0.00 | 0.02 | 0.02 | 70 | 1008.3 |
| 20260903043041 | 52 | 248 | 0.0 | 3.0 | 0.00 | 0.02 | 0.02 | 77 | 1008.6 |
| 20260903041545 | 52 | 198 | 0.0 | 0.0 | 0.00 | 0.02 | 0.02 | 77 | 1008.4 |
| 20260903040044 | 51 | 198 | 0.0 | 0.0 | 0.00 | 0.02 | 0.02 | 80 | 1008.4 |
| 20260903034541 | 51 | 198 | 0.0 | 3.0 | 0.00 | 0.02 | 0.02 | 81 | 1008.5 |
| 20260903033047 | 52 | 198 | 3.0 | 6.0 | 0.00 | 0.02 | 0.02 | 79 | 1008.3 |
| 20260903031545 | 54 | 241 | 7.0 | 11.0 | 0.00 | 0.02 | 0.02 | 74 | 1008.3 |
| 20260903030051 | 55 | 250 | 11.0 | 16.0 | 0.00 | 0.02 | 0.02 | 73 | 1008.4 |
| 20260903024540 | 56 | 259 | 12.0 | 17.0 | 0.00 | 0.02 | 0.02 | 72 | 1007.7 |
| 20260903023039 | 57 | 257 | 12.0 | 19.0 | 0.00 | 0.02 | 0.02 | 69 | 1007.6 |
| 20260903021548 | 59 | 258 | 16.0 | 26.0 | 0.00 | 0.02 | 0.02 | 66 | 1007.5 |
| 20260903020041 | 60 | 201 | 15.0 | 21.0 | 0.00 | 0.02 | 0.02 | 61 | 1007.2 |
| 20260903014551 | 60 | 201 | 11.0 | 17.0 | 0.00 | 0.02 | 0.02 | 64 | 1007.5 |
| 20260903013040 | 62 | 182 | 6.0 | 10.0 | 0.00 | 0.02 | 0.02 | 62 | 1007.6 |
| 20260903011555 | 63 | 165 | 3.0 | 7.0 | 0.00 | 0.02 | 0.02 | 67 | 1008.1 |
| 20260903010046 | 62 | 144 | 0.0 | 10.0 | 0.00 | 0.02 | 0.02 | 63 | 1008.3 |
| 20260903004541 | 62 | 303 | 0.0 | 8.0 | 0.00 | 0.02 | 0.02 | 64 | 1008.1 |
| 20260903003048 | 62 | 302 | 8.0 | 14.0 | 0.00 | 0.02 | 0.02 | 61 | 1007.3 |
| 20260903001542 | 61 | 300 | 11.0 | 14.0 | 0.01 | 0.02 | 0.02 | 66 | 1007.0 |
| 20260903000052 | 61 | 288 | 11.0 | 21.0 | 0.01 | 0.02 | 0.02 | 64 | 1008.0 |
| 20260902234547 | 61 | 246 | 21.0 | 28.0 | 0.01 | 0.02 | 0.02 | 62 | 1008.6 |
| 20260902233051 | 60 | 249 | 18.0 | 26.0 | 0.01 | 0.02 | 0.02 | 64 | 1008.9 |
| 20260902231542 | 60 | 218 | 22.0 | 30.0 | 0.01 | 0.01 | 0.01 | 69 | 1008.9 |
| 20260902230101 | 63 | 217 | 33.0 | 47.0 | 0.01 | 0.01 | 0.01 | 54 | 1008.5 |
| 20260902224544 | 68 | 217 | 38.0 | 48.0 | 0.01 | 0.01 | 0.01 | 45 | 1007.1 |
| 20260902223046 | 78 | 211 | 21.0 | 34.0 | 0.00 | 0.00 | 0.00 | 35 | 1004.6 |
| 20260902221541 | 82 | 194 | 11.0 | 15.0 | 0.00 | 0.00 | 0.00 | 26 | 1003.8 |
| 20260902220054 | 83 | 172 | 10.0 | 13.0 | 0.00 | 0.00 | 0.00 | 26 | 1003.9 |
| 20260902214600 | 83 | 198 | 11.0 | 21.0 | 0.00 | 0.00 | 0.00 | 26 | 1004.3 |
| 20260902213044 | 84 | 223 | 10.0 | 19.0 | 0.00 | 0.00 | 0.00 | 25 | 1004.2 |